Location: Staunton
(38.1490°N, 79.0720°W)
Time: 19:56:30
(UTC-04:00)

ISS - Pass Details

Date: 14 January 2019
Orbit: 408 x 410 km, 51.6° (Epoch: 25 April)

Event Time Altitude Azimuth Distance (km) Brightness Sun altitude
Exits shadow 05:12:39 20° 129° (SE) 1,021 -1.2 -26.9°
Drops below altitude 10° 05:13:45 10° 130° (SE) 1,468 -0.3 -26.7°
Sets 05:15:50 0° 130° (SE) 2,324 0.9 -26.3°
